TimePDT,TemperatureF,Dew PointF,Humidity,Sea Level PressureIn,VisibilityMPH,Wind Direction,Wind SpeedMPH,Gust SpeedMPH,PrecipitationIn,Events,Conditions,WindDirDegrees,DateUTC
12:53 AM,71.1,43.0,36,29.81,10.0,East,12.7,-,N/A,,Clear,90,2013-09-15 07:53:00
1:53 AM,71.1,42.1,35,29.80,10.0,East,12.7,-,N/A,,Clear,90,2013-09-15 08:53:00
2:53 AM,71.1,41.0,34,29.79,10.0,East,13.8,-,N/A,,Clear,90,2013-09-15 09:53:00
3:53 AM,69.1,42.1,38,29.79,10.0,East,12.7,-,N/A,,Clear,90,2013-09-15 10:53:00
4:53 AM,68.0,42.1,39,29.79,10.0,East,12.7,-,N/A,,Clear,90,2013-09-15 11:53:00
5:53 AM,70.0,43.0,38,29.79,10.0,East,15.0,-,N/A,,Clear,100,2013-09-15 12:53:00
6:53 AM,69.1,44.1,40,29.81,10.0,East,11.5,-,N/A,,Clear,90,2013-09-15 13:53:00
7:53 AM,72.0,45.0,38,29.81,10.0,East,11.5,-,N/A,,Clear,100,2013-09-15 14:53:00
8:53 AM,73.9,46.0,37,29.81,10.0,East,15.0,23.0,N/A,,Partly Cloudy,100,2013-09-15 15:53:00
9:53 AM,75.9,46.0,35,29.80,10.0,East,15.0,24.2,N/A,,Partly Cloudy,100,2013-09-15 16:53:00
10:53 AM,81.0,46.9,30,29.78,10.0,ESE,11.5,-,N/A,,Scattered Clouds,110,2013-09-15 17:53:00
11:53 AM,86.0,46.9,26,29.76,10.0,SSE,13.8,-,N/A,,Clear,150,2013-09-15 18:53:00
12:53 PM,87.1,46.9,25,29.75,10.0,SE,10.4,-,N/A,,Clear,140,2013-09-15 19:53:00
1:53 PM,88.0,46.9,24,29.73,10.0,SSE,10.4,-,N/A,,Clear,150,2013-09-15 20:53:00
2:53 PM,89.1,45.0,22,29.70,10.0,East,6.9,-,N/A,,Clear,100,2013-09-15 21:53:00
3:53 PM,89.1,44.1,21,29.68,10.0,South,9.2,18.4,N/A,,Clear,170,2013-09-15 22:53:00
4:53 PM,90.0,44.1,20,29.65,10.0,SSE,6.9,16.1,N/A,,Clear,160,2013-09-15 23:53:00
5:53 PM,88.0,45.0,22,29.64,10.0,SE,6.9,-,N/A,,Clear,140,2013-09-16 00:53:00
6:53 PM,81.0,45.0,28,29.63,10.0,ESE,6.9,-,N/A,,Clear,110,2013-09-16 01:53:00
7:53 PM,77.0,45.0,32,29.65,10.0,Calm,Calm,-,N/A,,Clear,0,2013-09-16 02:53:00
8:31 PM,75.2,48.2,38,29.77,2.5,West,21.9,38.0,N/A,,Haze,270,2013-09-16 03:31:00
8:39 PM,73.4,53.6,50,29.77,1.2,West,21.9,29.9,N/A,,Haze,280,2013-09-16 03:39:00
8:48 PM,71.6,53.6,53,29.77,1.5,West,25.3,32.2,N/A,,Haze,280,2013-09-16 03:48:00
8:53 PM,70.0,55.0,59,29.73,1.5,West,21.9,32.2,N/A,,Haze,280,2013-09-16 03:53:00
9:07 PM,69.8,55.4,60,29.79,1.8,West,16.1,23.0,N/A,Thunderstorm,Haze,270,2013-09-16 04:07:00
9:16 PM,68.0,57.2,68,29.79,2.5,West,16.1,24.2,N/A,Thunderstorm,Haze,260,2013-09-16 04:16:00
9:24 PM,66.2,57.2,73,29.81,4.0,West,12.7,25.3,0.00,Rain-Thunderstorm,Light Thunderstorms and Rain,260,2013-09-16 04:24:00
9:29 PM,64.4,59.0,83,29.83,1.8,WSW,11.5,24.2,0.12,Rain-Thunderstorm,Heavy Thunderstorms and Rain,240,2013-09-16 04:29:00
9:40 PM,64.4,60.8,88,29.79,2.5,NW,11.5,-,0.21,Rain-Thunderstorm,Light Thunderstorms and Rain,320,2013-09-16 04:40:00
9:53 PM,64.0,60.1,87,29.73,5.0,NNE,9.2,-,0.22,Rain-Thunderstorm,Rain,20,2013-09-16 04:53:00
10:08 PM,64.4,60.8,88,29.78,7.0,ENE,5.8,-,0.00,,Mostly Cloudy,60,2013-09-16 05:08:00
10:53 PM,64.0,61.0,90,29.78,6.0,Calm,Calm,-,0.00,Rain,Light Rain,0,2013-09-16 05:53:00
11:53 PM,63.0,60.1,90,29.73,8.0,North,5.8,-,0.00,,Clear,10,2013-09-16 06:53:00